QPF
0.00 0.00 0.00 0.00 0.00 0.00 0.00 0.00 0.00 0.00 0.00 0.00 0.00 0.00 0.01 0.01 0.01 0.02 0.03 0.04 0.04 0.06 0.08 0.08 0.10 0.10 0.12 0.14 0.15 0.15 0.16 0.18 0.19 0.18 0.15 0.12 0.10 0.09 0.09 0.08 0.09 0.09 0.07
0.00 0.00 0.00 0.00 0.00 0.00 0.00 0.00 0.00 0.00 0.00 0.00 0.00 0.00 0.03 0.03 0.02 0.02 0.03 0.04 0.05 0.06 0.07 0.09 0.11 0.12 0.13 0.13 0.14 0.15 0.17 0.19 0.19 0.18 0.17 0.15 0.13 0.12 0.12 0.11 0.11 0.11 0.11
0.00 0.00 0.00 0.00 0.00 0.00 0.00 0.00 0.00 0.00 0.00 0.00 0.00 0.00 0.01 0.03 0.02 0.02 0.02 0.03 0.05 0.06 0.06 0.08 0.11 0.12 0.13 0.15 0.15 0.14 0.16 0.20 0.23 0.24 0.21 0.19 0.18 0.17 0.17 0.16 0.15 0.15 0.17
0.00 0.00 0.00 0.00 0.00 0.00 0.00 0.00 0.00 0.00 0.00 0.00 0.00 0.00 0.00 0.01 0.02 0.02 0.02 0.02 0.04 0.05 0.06 0.07 0.10 0.11 0.13 0.16 0.17 0.17 0.17 0.20 0.20 0.23 0.23 0.22 0.20 0.22 0.24 0.23 0.20 0.19 0.21
0.00 0.00 0.00 0.00 0.00 0.00 0.00 0.00 0.00 0.00 0.00 0.00 0.00 0.00 0.00 0.00 0.01 0.01 0.02 0.03 0.02 0.03 0.05 0.08 0.10 0.11 0.13 0.15 0.15 0.16 0.17 0.19 0.20 0.20 0.20 0.21 0.22 0.24 0.26 0.25 0.24 0.23 0.23
0.00 0.00 0.00 0.00 0.00 0.00 0.00 0.00 0.00 0.00 0.00 0.00 0.00 0.00 0.00 0.00 0.01 0.01 0.02 0.04 0.02 0.03 0.04 0.06 0.10 0.14 0.15 0.16 0.17 0.18 0.17 0.17 0.19 0.20 0.19 0.18 0.18 0.19 0.22 0.26 0.27 0.29 0.32
0.00 0.00 0.00 0.00 0.00 0.00 0.00 0.00 0.00 0.00 0.00 0.00 0.00 0.00 0.00 0.01 0.02 0.02 0.01 0.04 0.03 0.03 0.03 0.05 0.09 0.13 0.15 0.19 0.15 0.17 0.17 0.18 0.19 0.22 0.20 0.17 0.17 0.17 0.20 0.24 0.25 0.24 0.25
0.00 0.00 0.00 0.00 0.00 0.00 0.00 0.00 0.00 0.00 0.00 0.00 0.00 0.00 0.00 0.00 0.02 0.03 0.02 0.04 0.05 0.03 0.04 0.05 0.06 0.09 0.11 0.13 0.13 0.15 0.16 0.15 0.14 0.18 0.22 0.22 0.20 0.21 0.24 0.25 0.28 0.29 0.32
0.00 0.00 0.00 0.00 0.00 0.00 0.00 0.00 0.00 0.00 0.00 0.00 0.00 0.00 0.00 0.00 0.01 0.03 0.03 0.03 0.03 0.02 0.05 0.07 0.06 0.06 0.06 0.06 0.09 0.14 0.17 0.15 0.13 0.14 0.19 0.23 0.23 0.24 0.28 0.28 0.29 0.31 0.34
0.00 0.00 0.00 0.00 0.00 0.00 0.00 0.00 0.00 0.00 0.00 0.00 0.00 0.00 0.00 0.01 0.01 0.01 0.02 0.02 0.02 0.03 0.03 0.04 0.05 0.05 0.04 0.05 0.07 0.11 0.15 0.16 0.13 0.12 0.15 0.19 0.23 0.23 0.25 0.24 0.24 0.23 0.22
0.00 0.00 0.00 0.00 0.00 0.00 0.00 0.00 0.00 0.00 0.00 0.00 0.00 0.00 0.00 0.00 0.00 0.00 0.00 0.01 0.01 0.01 0.02 0.03 0.04 0.03 0.04 0.05 0.05 0.06 0.08 0.12 0.15 0.16 0.17 0.19 0.23 0.27 0.25 0.24 0.25 0.22 0.18
0.00 0.00 0.00 0.00 0.00 0.00 0.00 0.00 0.00 0.00 0.00 0.00 0.00 0.00 0.00 0.00 0.00 0.00 0.00 0.00 0.00 0.01 0.02 0.02 0.03 0.02 0.03 0.06 0.04 0.04 0.05 0.10 0.15 0.18 0.21 0.21 0.21 0.24 0.25 0.25 0.26 0.25 0.19
0.00 0.00 0.00 0.00 0.00 0.00 0.00 0.00 0.00 0.00 0.00 0.00 0.00 0.00 0.00 0.00 0.00 0.00 0.00 0.00 0.00 0.01 0.01 0.01 0.01 0.01 0.01 0.04 0.04 0.03 0.05 0.10 0.14 0.15 0.18 0.20 0.18 0.18 0.17 0.18 0.21 0.24 0.22
0.00 0.00 0.00 0.00 0.00 0.00 0.00 0.00 0.00 0.00 0.00 0.00 0.00 0.00 0.00 0.00 0.00 0.00 0.00 0.00 0.00 0.01 0.01 0.01 0.01 0.01 0.02 0.04 0.05 0.05 0.05 0.07 0.11 0.13 0.15 0.16 0.14 0.14 0.13 0.12 0.15 0.17 0.18
0.00 0.00 0.00 0.00 0.00 0.00 0.00 0.00 0.00 0.00 0.00 0.00 0.00 0.00 0.00 0.00 0.00 0.00 0.00 0.00 0.00 0.00 0.00 0.01 0.01 0.02 0.03 0.03 0.03 0.03 0.03 0.03 0.07 0.08 0.10 0.13 0.12 0.11 0.12 0.10 0.11 0.11 0.11
0.00 0.00 0.00 0.00 0.00 0.00 0.00 0.00 0.00 0.00 0.00 0.00 0.00 0.00 0.00 0.00 0.00 0.00 0.00 0.00 0.00 0.00 0.00 0.01 0.01 0.01 0.02 0.02 0.02 0.02 0.04 0.03 0.05 0.06 0.08 0.11 0.10 0.09 0.09 0.11 0.10 0.09 0.07
0.00 0.00 0.00 0.00 0.00 0.00 0.00 0.00 0.00 0.00 0.00 0.00 0.00 0.00 0.00 0.00 0.00 0.00 0.00 0.00 0.00 0.00 0.01 0.01 0.00 0.01 0.02 0.01 0.01 0.02 0.04 0.03 0.05 0.07 0.07 0.09 0.09 0.08 0.07 0.09 0.09 0.07 0.06
0.00 0.00 0.00 0.00 0.00 0.00 0.00 0.00 0.00 0.00 0.00 0.00 0.00 0.00 0.00 0.00 0.00 0.00 0.00 0.00 0.00 0.00 0.01 0.01 0.00 0.00 0.00 0.00 0.01 0.01 0.02 0.02 0.03 0.05 0.05 0.06 0.07 0.07 0.06 0.06 0.05 0.04 0.05
0.00 0.00 0.00 0.00 0.00 0.00 0.00 0.00 0.00 0.00 0.00 0.00 0.00 0.00 0.00 0.00 0.00 0.00 0.00 0.00 0.00 0.00 0.00 0.00 0.00 0.00 0.00 0.00 0.00 0.01 0.01 0.01 0.01 0.03 0.03 0.03 0.04 0.05 0.05 0.03 0.02 0.02 0.03
0.00 0.00 0.00 0.00 0.00 0.00 0.00 0.00 0.00 0.00 0.00 0.00 0.00 0.00 0.00 0.00 0.00 0.00 0.00 0.00 0.00 0.00 0.00 0.00 0.00 0.00 0.00 0.00 0.00 0.00 0.00 0.01 0.01 0.01 0.01 0.01 0.02 0.02 0.03 0.02 0.01 0.01 0.01
0.00 0.00 0.00 0.00 0.00 0.00 0.00 0.00 0.00 0.00 0.00 0.00 0.00 0.00 0.00 0.00 0.00 0.00 0.00 0.00 0.00 0.00 0.00 0.00 0.00 0.00 0.00 0.00 0.00 0.00 0.00 0.00 0.01 0.01 0.00 0.00 0.00 0.01 0.01 0.01 0.01 0.01 0.01
0.00 0.00 0.00 0.00 0.00 0.00 0.00 0.00 0.00 0.00 0.00 0.00 0.00 0.00 0.00 0.00 0.00 0.00 0.00 0.00 0.00 0.00 0.00 0.00 0.00 0.00 0.00 0.00 0.00 0.00 0.00 0.00 0.00 0.00 0.00 0.00 0.00 0.00 0.00 0.00 0.01 0.01 0.01
0.00 0.00 0.00 0.00 0.00 0.00 0.00 0.00 0.00 0.00 0.00 0.00 0.00 0.00 0.00 0.00 0.00 0.00 0.00 0.00 0.00 0.00 0.00 0.00 0.00 0.00 0.00 0.00 0.00 0.00 0.00 0.00 0.00 0.00 0.00 0.00 0.00 0.00 0.00 0.00 0.00 0.00 0.00
0.00 0.00 0.00 0.00 0.00 0.00 0.00 0.00 0.00 0.00 0.00 0.00 0.00 0.00 0.00 0.00 0.00 0.00 0.00 0.00 0.00 0.00 0.00 0.00 0.00 0.00 0.00 0.00 0.00 0.00 0.00 0.00 0.00 0.00 0.00 0.00 0.00 0.00 0.00 0.00 0.00 0.00 0.00
0.00 0.00 0.00 0.00 0.00 0.00 0.00 0.00 0.00 0.00 0.00 0.00 0.00 0.00 0.00 0.00 0.00 0.00 0.00 0.00 0.00 0.00 0.00 0.00 0.00 0.00 0.00 0.00 0.00 0.00 0.00 0.00 0.00 0.00 0.00 0.00 0.00 0.00 0.00 0.00 0.00 0.00 0.00
0.00 0.00 0.00 0.00 0.00 0.00 0.00 0.00 0.00 0.00 0.00 0.00 0.00 0.00 0.00 0.00 0.00 0.00 0.00 0.00 0.00 0.00 0.00 0.00 0.00 0.00 0.00 0.00 0.00 0.00 0.00 0.00 0.00 0.00 0.00 0.00 0.00 0.00 0.00 0.00 0.00 0.00 0.00
MSLP
1015.96 1015.97 1015.95 1015.89 1015.77 1015.57 1015.31 1015.00 1014.66 1014.32 1013.98 1013.66 1013.36 1013.07 1012.79 1012.48 1012.15 1011.78 1011.36 1010.91 1010.43 1009.96 1009.50 1009.10 1008.79 1008.58 1008.49 1008.53 1008.69 1008.95 1009.28 1009.65 1010.03 1010.39 1010.71 1010.98 1011.22 1011.42 1011.64 1011.88 1012.17 1012.52 1012.95
1015.59 1015.60 1015.59 1015.57 1015.48 1015.34 1015.14 1014.87 1014.56 1014.23 1013.88 1013.54 1013.20 1012.87 1012.54 1012.20 1011.84 1011.45 1011.02 1010.55 1010.05 1009.53 1009.02 1008.56 1008.16 1007.86 1007.69 1007.67 1007.78 1008.03 1008.39 1008.83 1009.30 1009.77 1010.20 1010.59 1010.93 1011.22 1011.49 1011.77 1012.06 1012.41 1012.81
1015.26 1015.27 1015.29 1015.29 1015.26 1015.16 1015.01 1014.79 1014.51 1014.19 1013.84 1013.47 1013.10 1012.72 1012.35 1011.98 1011.59 1011.18 1010.73 1010.25 1009.74 1009.19 1008.65 1008.13 1007.66 1007.29 1007.04 1006.94 1007.00 1007.22 1007.58 1008.04 1008.56 1009.11 1009.63 1010.12 1010.55 1010.93 1011.26 1011.58 1011.90 1012.26 1012.66
1014.98 1015.01 1015.05 1015.09 1015.09 1015.04 1014.92 1014.74 1014.49 1014.18 1013.83 1013.45 1013.05 1012.64 1012.24 1011.84 1011.43 1011.01 1010.56 1010.08 1009.56 1009.00 1008.43 1007.87 1007.35 1006.91 1006.59 1006.42 1006.41 1006.57 1006.89 1007.33 1007.86 1008.44 1009.02 1009.56 1010.06 1010.50 1010.89 1011.26 1011.62 1012.00 1012.41
1014.76 1014.82 1014.88 1014.94 1014.97 1014.95 1014.86 1014.70 1014.47 1014.17 1013.82 1013.43 1013.02 1012.61 1012.19 1011.78 1011.36 1010.94 1010.50 1010.03 1009.52 1008.97 1008.40 1007.82 1007.26 1006.77 1006.39 1006.14 1006.05 1006.14 1006.38 1006.77 1007.26 1007.80 1008.37 1008.93 1009.45 1009.92 1010.35 1010.76 1011.16 1011.58 1012.03
1014.58 1014.67 1014.75 1014.82 1014.86 1014.85 1014.77 1014.62 1014.40 1014.12 1013.78 1013.40 1012.99 1012.58 1012.16 1011.76 1011.36 1010.96 1010.54 1010.09 1009.61 1009.08 1008.52 1007.94 1007.37 1006.85 1006.42 1006.11 1005.94 1005.94 1006.09 1006.38 1006.78 1007.25 1007.76 1008.28 1008.77 1009.24 1009.68 1010.11 1010.55 1011.01 1011.52
1014.42 1014.52 1014.62 1014.69 1014.72 1014.70 1014.62 1014.47 1014.26 1013.98 1013.65 1013.29 1012.90 1012.51 1012.12 1011.74 1011.37 1010.99 1010.61 1010.20 1009.75 1009.26 1008.73 1008.18 1007.62 1007.10 1006.64 1006.29 1006.06 1005.97 1006.02 1006.19 1006.48 1006.84 1007.25 1007.68 1008.11 1008.54 1008.96 1009.40 1009.86 1010.36 1010.92
1014.21 1014.33 1014.42 1014.48 1014.50 1014.47 1014.37 1014.22 1014.01 1013.75 1013.44 1013.10 1012.75 1012.39 1012.03 1011.68 1011.34 1011.00 1010.66 1010.28 1009.88 1009.43 1008.95 1008.45 1007.93 1007.44 1006.99 1006.62 1006.35 1006.19 1006.15 1006.22 1006.38 1006.62 1006.90 1007.22 1007.56 1007.92 1008.31 1008.73 1009.20 1009.73 1010.34
1013.93 1014.04 1014.13 1014.18 1014.18 1014.12 1014.02 1013.86 1013.66 1013.42 1013.14 1012.84 1012.52 1012.20 1011.88 1011.57 1011.26 1010.96 1010.64 1010.31 1009.94 1009.55 1009.13 1008.68 1008.23 1007.79 1007.38 1007.02 1006.74 1006.55 1006.44 1006.42 1006.47 1006.59 1006.76 1006.97 1007.21 1007.50 1007.83 1008.22 1008.68 1009.23 1009.87
1013.53 1013.64 1013.71 1013.74 1013.73 1013.67 1013.56 1013.42 1013.23 1013.02 1012.78 1012.53 1012.26 1011.98 1011.70 1011.42 1011.14 1010.86 1010.57 1010.26 1009.94 1009.59 1009.22 1008.85 1008.46 1008.09 1007.74 1007.43 1007.17 1006.97 1006.83 1006.75 1006.73 1006.75 1006.82 1006.93 1007.09 1007.30 1007.58 1007.95 1008.40 1008.95 1009.60
1013.04 1013.13 1013.18 1013.20 1013.18 1013.12 1013.02 1012.90 1012.76 1012.59 1012.40 1012.20 1011.98 1011.76 1011.52 1011.27 1011.01 1010.74 1010.46 1010.17 1009.87 1009.56 1009.25 1008.93 1008.62 1008.32 1008.04 1007.79 1007.57 1007.39 1007.25 1007.14 1007.07 1007.04 1007.04 1007.09 1007.19 1007.35 1007.60 1007.93 1008.37 1008.91 1009.56
1012.47 1012.53 1012.56 1012.56 1012.54 1012.49 1012.42 1012.34 1012.25 1012.14 1012.02 1011.88 1011.73 1011.55 1011.36 1011.14 1010.90 1010.64 1010.37 1010.09 1009.80 1009.52 1009.24 1008.97 1008.72 1008.48 1008.27 1008.08 1007.91 1007.76 1007.63 1007.53 1007.44 1007.38 1007.36 1007.38 1007.45 1007.60 1007.82 1008.15 1008.58 1009.10 1009.73
1011.88 1011.89 1011.88 1011.87 1011.84 1011.81 1011.77 1011.74 1011.71 1011.67 1011.63 1011.57 1011.48 1011.37 1011.22 1011.04 1010.83 1010.58 1010.32 1010.05 1009.77 1009.50 1009.24 1009.00 1008.79 1008.59 1008.43 1008.28 1008.15 1008.03 1007.93 1007.84 1007.76 1007.71 1007.69 1007.71 1007.79 1007.95 1008.19 1008.52 1008.94 1009.46 1010.05
1011.32 1011.26 1011.21 1011.15 1011.11 1011.09 1011.08 1011.09 1011.12 1011.16 1011.19 1011.21 1011.21 1011.16 1011.08 1010.95 1010.77 1010.56 1010.31 1010.05 1009.78 1009.52 1009.27 1009.05 1008.85 1008.68 1008.54 1008.41 1008.30 1008.20 1008.11 1008.04 1007.98 1007.95 1007.95 1008.01 1008.13 1008.32 1008.59 1008.94 1009.37 1009.87 1010.44
1010.85 1010.70 1010.57 1010.46 1010.38 1010.34 1010.35 1010.39 1010.46 1010.56 1010.66 1010.76 1010.84 1010.87 1010.86 1010.79 1010.68 1010.51 1010.30 1010.06 1009.82 1009.57 1009.33 1009.11 1008.92 1008.75 1008.60 1008.47 1008.36 1008.26 1008.18 1008.11 1008.07 1008.07 1008.11 1008.21 1008.38 1008.62 1008.93 1009.32 1009.77 1010.27 1010.81
1010.50 1010.24 1010.01 1009.82 1009.68 1009.60 1009.58 1009.62 1009.71 1009.84 1010.00 1010.16 1010.30 1010.42 1010.48 1010.49 1010.45 1010.34 1010.20 1010.01 1009.80 1009.58 1009.36 1009.15 1008.95 1008.78 1008.61 1008.47 1008.34 1008.22 1008.13 1008.07 1008.04 1008.06 1008.13 1008.28 1008.50 1008.80 1009.17 1009.59 1010.07 1010.57 1011.08
1010.32 1009.93 1009.57 1009.27 1009.04 1008.88 1008.80 1008.80 1008.88 1009.01 1009.18 1009.38 1009.58 1009.75 1009.89 1009.98 1010.01 1009.99 1009.91 1009.79 1009.64 1009.46 1009.27 1009.08 1008.90 1008.71 1008.54 1008.38 1008.23 1008.10 1007.99 1007.92 1007.90 1007.94 1008.05 1008.23 1008.50 1008.85 1009.26 1009.72 1010.22 1010.72 1011.22
1010.29 1009.77 1009.29 1008.86 1008.51 1008.25 1008.08 1008.00 1008.02 1008.11 1008.26 1008.46 1008.67 1008.88 1009.07 1009.22 1009.32 1009.37 1009.38 1009.33 1009.24 1009.13 1008.99 1008.84 1008.67 1008.51 1008.34 1008.18 1008.02 1007.89 1007.78 1007.71 1007.69 1007.75 1007.88 1008.09 1008.39 1008.77 1009.21 1009.70 1010.20 1010.71 1011.20
1010.43 1009.79 1009.18 1008.63 1008.15 1007.77 1007.49 1007.30 1007.22 1007.24 1007.33 1007.48 1007.67 1007.87 1008.07 1008.25 1008.40 1008.51 1008.57 1008.60 1008.58 1008.53 1008.45 1008.35 1008.24 1008.11 1007.97 1007.84 1007.70 1007.58 1007.49 1007.44 1007.44 1007.50 1007.65 1007.88 1008.19 1008.58 1009.04 1009.53 1010.04 1010.55 1011.02
1010.71 1009.97 1009.27 1008.61 1008.02 1007.51 1007.11 1006.81 1006.61 1006.51 1006.50 1006.57 1006.69 1006.85 1007.01 1007.18 1007.33 1007.46 1007.55 1007.62 1007.65 1007.66 1007.65 1007.61 1007.56 1007.49 1007.42 1007.34 1007.26 1007.19 1007.14 1007.12 1007.15 1007.24 1007.39 1007.63 1007.94 1008.32 1008.76 1009.24 1009.74 1010.24 1010.71
1011.10 1010.32 1009.55 1008.82 1008.14 1007.54 1007.02 1006.60 1006.28 1006.06 1005.93 1005.88 1005.89 1005.95 1006.04 1006.14 1006.25 1006.34 1006.43 1006.50 1006.55 1006.60 1006.63 1006.65 1006.67 1006.68 1006.69 1006.69 1006.70 1006.70 1006.72 1006.76 1006.83 1006.94 1007.11 1007.34 1007.64 1008.00 1008.41 1008.86 1009.34 1009.81 1010.27
1011.58 1010.80 1010.02 1009.26 1008.53 1007.86 1007.26 1006.74 1006.31 1005.96 1005.70 1005.51 1005.40 1005.33 1005.30 1005.29 1005.30 1005.32 1005.34 1005.37 1005.41 1005.45 1005.50 1005.57 1005.64 1005.73 1005.83 1005.93 1006.03 1006.13 1006.24 1006.35 1006.48 1006.63 1006.81 1007.04 1007.31 1007.64 1008.00 1008.41 1008.85 1009.30 1009.74
1012.10 1011.36 1010.61 1009.87 1009.14 1008.45 1007.80 1007.22 1006.70 1006.25 1005.87 1005.55 1005.29 1005.08 1004.91 1004.76 1004.64 1004.54 1004.46 1004.40 1004.37 1004.37 1004.40 1004.48 1004.59 1004.73 1004.90 1005.10 1005.30 1005.50 1005.70 1005.90 1006.09 1006.28 1006.49 1006.71 1006.96 1007.24 1007.56 1007.92 1008.31 1008.72 1009.15
1012.59 1011.93 1011.25 1010.56 1009.88 1009.20 1008.55 1007.94 1007.37 1006.85 1006.38 1005.95 1005.57 1005.22 1004.90 1004.61 1004.34 1004.09 1003.87 1003.69 1003.56 1003.48 1003.46 1003.50 1003.61 1003.78 1004.00 1004.26 1004.54 1004.84 1005.13 1005.40 1005.66 1005.90 1006.13 1006.35 1006.58 1006.83 1007.11 1007.42 1007.76 1008.14 1008.54
1012.99 1012.43 1011.84 1011.23 1010.61 1009.99 1009.37 1008.77 1008.18 1007.63 1007.10 1006.60 1006.13 1005.67 1005.23 1004.81 1004.39 1004.00 1003.64 1003.32 1003.06 1002.86 1002.75 1002.72 1002.79 1002.94 1003.17 1003.47 1003.80 1004.16 1004.52 1004.86 1005.18 1005.47 1005.72 1005.96 1006.19 1006.41 1006.66 1006.93 1007.23 1007.57 1007.95
1013.25 1012.78 1012.29 1011.77 1011.23 1010.67 1010.10 1009.54 1008.98 1008.43 1007.89 1007.36 1006.83 1006.31 1005.79 1005.26 1004.74 1004.22 1003.72 1003.26 1002.86 1002.53 1002.30 1002.17 1002.15 1002.24 1002.44 1002.72 1003.07 1003.46 1003.86 1004.26 1004.63 1004.96 1005.26 1005.52 1005.75 1005.98 1006.21 1006.46 1006.73 1007.05 1007.40
Thickness
5670 5667 5663 5660 5657 5654 5651 5649 5647 5647 5647 5646 5645 5646 5647 5648 5649 5650 5652 5655 5658 5662 5666 5670 5674 5680 5683 5687 5690 5693 5696 5698 5698 5703 5706 5709 5711 5714 5716 5717 5719 5720 5720
5673 5670 5666 5662 5659 5656 5653 5650 5648 5646 5645 5644 5643 5642 5642 5642 5643 5644 5646 5649 5652 5655 5659 5662 5667 5672 5676 5680 5683 5687 5690 5694 5695 5695 5698 5701 5704 5708 5710 5711 5713 5714 5716
5676 5672 5669 5665 5661 5657 5654 5651 5648 5646 5644 5643 5641 5639 5638 5638 5638 5639 5642 5643 5646 5649 5651 5654 5659 5663 5667 5671 5675 5680 5684 5687 5689 5690 5692 5694 5697 5700 5702 5704 5706 5708 5709
5680 5675 5671 5667 5663 5658 5655 5651 5648 5645 5642 5640 5638 5636 5635 5634 5634 5635 5636 5638 5640 5643 5645 5648 5652 5656 5660 5663 5667 5672 5676 5679 5681 5683 5685 5687 5690 5693 5695 5696 5698 5700 5702
5683 5678 5673 5669 5664 5659 5655 5651 5647 5645 5642 5638 5635 5633 5631 5629 5627 5626 5628 5631 5634 5637 5640 5643 5646 5648 5652 5655 5659 5664 5668 5671 5674 5675 5678 5681 5683 5686 5689 5692 5692 5693 5693
5685 5680 5675 5670 5665 5660 5656 5651 5648 5644 5641 5637 5633 5630 5626 5624 5619 5617 5618 5624 5628 5630 5633 5637 5640 5643 5645 5648 5651 5655 5660 5664 5668 5670 5673 5676 5679 5683 5684 5685 5686 5685 5685
5687 5682 5676 5671 5666 5661 5656 5652 5647 5644 5640 5635 5631 5628 5624 5620 5614 5613 5613 5616 5619 5622 5626 5629 5633 5636 5638 5643 5645 5648 5653 5657 5662 5667 5669 5673 5677 5680 5680 5680 5681 5682 5682
5689 5683 5678 5672 5667 5662 5657 5653 5649 5645 5641 5636 5630 5626 5622 5619 5612 5609 5609 5612 5614 5616 5619 5622 5625 5628 5631 5635 5640 5644 5648 5652 5657 5661 5667 5670 5673 5675 5677 5678 5677 5675 5674
5690 5685 5680 5675 5669 5664 5659 5655 5651 5646 5642 5637 5632 5627 5623 5620 5612 5608 5606 5610 5610 5612 5614 5617 5619 5623 5624 5627 5633 5637 5641 5645 5648 5653 5658 5663 5666 5669 5670 5669 5669 5668 5666
5691 5686 5682 5676 5671 5665 5661 5656 5652 5647 5643 5639 5635 5630 5625 5621 5613 5608 5605 5609 5608 5608 5610 5613 5614 5616 5619 5623 5629 5633 5636 5640 5645 5648 5651 5655 5659 5662 5664 5666 5666 5665 5662
5693 5688 5682 5678 5673 5668 5663 5658 5654 5649 5645 5642 5638 5634 5629 5622 5617 5610 5606 5607 5607 5607 5609 5611 5613 5613 5616 5620 5624 5629 5631 5635 5640 5643 5646 5649 5653 5655 5657 5659 5662 5662 5660
5693 5687 5683 5680 5675 5671 5665 5660 5656 5652 5647 5645 5641 5638 5634 5628 5620 5614 5609 5607 5605 5608 5608 5609 5611 5611 5614 5618 5622 5624 5627 5630 5635 5638 5640 5643 5645 5648 5650 5652 5654 5654 5656
5693 5688 5685 5682 5677 5672 5667 5663 5659 5655 5651 5649 5645 5641 5637 5632 5627 5618 5614 5611 5609 5610 5611 5609 5609 5610 5613 5617 5619 5622 5625 5629 5631 5633 5635 5637 5639 5641 5642 5643 5644 5644 5644
5693 5690 5688 5684 5680 5676 5670 5666 5662 5659 5655 5652 5648 5644 5640 5636 5631 5626 5622 5620 5616 5616 5616 5614 5612 5612 5614 5616 5619 5622 5624 5626 5628 5629 5630 5631 5632 5633 5634 5635 5635 5636 5635
5691 5690 5688 5685 5682 5677 5675 5670 5666 5663 5659 5653 5651 5647 5642 5638 5633 5623 5620 5621 5619 5618 5616 5619 5619 5619 5619 5619 5620 5621 5622 5623 5624 5625 5625 5626 5626 5627 5628 5628 5629 5630 5630
5689 5689 5688 5685 5682 5679 5676 5673 5668 5662 5658 5652 5648 5644 5644 5638 5632 5627 5622 5619 5617 5616 5617 5621 5621 5621 5621 5621 5621 5620 5621 5621 5622 5623 5623 5622 5623 5623 5623 5624 5625 5627 5626
5682 5683 5684 5683 5682 5679 5676 5673 5671 5666 5657 5653 5649 5645 5642 5639 5634 5630 5626 5622 5620 5618 5621 5624 5624 5624 5623 5623 5622 5622 5621 5621 5621 5621 5621 5621 5621 5621 5621 5621 5622 5623 5622
5674 5675 5675 5676 5676 5676 5676 5674 5671 5668 5666 5663 5656 5650 5645 5641 5637 5633 5628 5625 5628 5627 5628 5627 5626 5626 5625 5625 5624 5624 5623 5622 5621 5621 5620 5620 5620 5620 5620 5620 5620 5621 5620
5664 5666 5667 5669 5671 5671 5672 5672 5671 5668 5666 5664 5662 5657 5649 5643 5638 5634 5630 5631 5634 5635 5633 5631 5630 5628 5628 5627 5627 5626 5625 5623 5622 5621 5621 5620 5620 5619 5619 5619 5618 5616 5617
5652 5653 5654 5659 5663 5664 5665 5666 5666 5666 5665 5664 5662 5660 5656 5647 5645 5643 5638 5638 5639 5638 5637 5635 5633 5631 5630 5629 5628 5626 5626 5625 5624 5624 5623 5622 5621 5621 5620 5619 5618 5617 5617
5641 5644 5645 5650 5653 5655 5656 5657 5659 5660 5661 5661 5661 5661 5656 5652 5650 5649 5647 5644 5642 5642 5640 5638 5636 5634 5632 5630 5629 5628 5627 5627 5626 5625 5625 5624 5623 5622 5621 5619 5619 5618 5618
5628 5631 5633 5636 5638 5641 5642 5646 5648 5650 5652 5653 5655 5656 5649 5647 5649 5650 5649 5647 5645 5644 5643 5641 5639 5637 5634 5632 5631 5630 5630 5629 5628 5627 5626 5625 5624 5622 5621 5619 5618 5617 5616
5612 5615 5618 5620 5623 5624 5628 5631 5633 5636 5638 5641 5643 5645 5646 5645 5645 5646 5647 5647 5646 5644 5643 5641 5639 5638 5636 5635 5633 5632 5631 5631 5630 5629 5627 5626 5624 5623 5622 5620 5618 5617 5616
5596 5598 5600 5603 5605 5607 5609 5612 5615 5618 5621 5624 5627 5631 5634 5636 5638 5640 5641 5642 5642 5642 5641 5639 5639 5638 5637 5635 5634 5632 5632 5632 5630 5629 5627 5626 5624 5623 5621 5620 5618 5617 5616
5581 5582 5583 5585 5586 5587 5589 5592 5594 5597 5600 5604 5608 5611 5615 5619 5624 5628 5631 5633 5634 5635 5636 5636 5636 5636 5636 5634 5633 5632 5631 5628 5626 5626 5625 5624 5623 5621 5620 5619 5618 5616 5615
5567 5567 5568 5568 5568 5568 5569 5571 5573 5574 5576 5579 5583 5587 5591 5596 5601 5607 5613 5618 5622 5625 5627 5629 5631 5632 5632 5632 5632 5630 5627 5624 5622 5620 5621 5621 5620 5620 5618 5617 5616 5615 5614